Weather History for Asheville, NC

Change the Weather History Date:

Friday, August 28, 2009

  Actual Average Record
Temperature  
Mean Temperature 72 °F 72 °F  
Max Temperature 78 °F 82 °F 93 °F (1948)
Min Temperature 65 °F 61 °F 48 °F (1968)
Degree Days  
Heating Degree Days 0 0  
Month to date heating degree days 0 0  
Since 1 June heating degree days 0 14  
Since 1 July heating degree days 0 0  
Cooling Degree Days 7 7  
Month to date cooling degree days 222 229  
Year to date cooling degree days 671 739  
Since 1 June cooling degree days 617 681  
Growing Degree Days 20 (Base 50)    
Moisture  
Dew Point 65 °F    
Average Humidity 82    
Maximum Humidity 100    
Minimum Humidity 64    
Precipitation  
Precipitation 0.14 in 0.13 in 1.75 in (1949)
Month to date precipitation 3.28 3.98  
Year to date precipitation 33.63 31.19  
Snow  
Snow 0.00 in 0.00 in 0.00 in ()
Month to date snowfall 0.0 0.0  
Since 1 June snowfall 0.0 0.0  
Since 1 July snowfall 0.0 0.0  
Snow Depth 0.00 in    
Sea Level Pressure  
Sea Level Pressure 30.06 in    
Wind  
Wind Speed 3 mph (NNW)    
Max Wind Speed 21 mph    
Max Gust Speed 28 mph    
Visibility 6 miles    
Events Rain , Thunderstorm    
T = Trace of Precipitation, MM = Missing Value Source: NWS Daily Summary

Daily Weather History Graph

Daily Weather History Graph

Search for Another Location

Airport:

Trip Planner

Search our weather history database for the weather conditions in past years. The results will help you decide how hot, cold, wet, or windy it might be!

Date:

Astronomy

Aug. 28, 2009 Rise Set
Actual Time 6:59 AM EDT 8:02 PM EDT
Civil Twilight 6:33 AM EDT 8:28 PM EDT
Nautical Twilight 6:02 AM EDT 8:59 PM EDT
Astronomical Twilight 5:30 AM EDT 9:31 PM EDT
Moon 3:43 PM EDT (8/28) 12:25 AM EDT (8/28)
Length of Visible Light 13h 55m
Length of Day
13h 02m
First Quarter, 61% of the Moon is Illuminated
Aug 28
First Quarter
Sep 4
Full
Sep 11
Last Quarter
Sep 18
New
Sep 26
First Quarter

Hourly Weather History & Observations

Time (EDT) Temp. Dew Point Humidity Pressure Visibility Wind Dir Wind Speed Gust Speed Precip Events Conditions
12:02 AM 66.2 °F 64.4 °F 94% 30.15 in 8.0 mi Calm Calm - N/A   Partly Cloudy
12:21 AM 66.2 °F 64.4 °F 94% 30.14 in 6.0 mi Calm Calm - N/A   Mostly Cloudy
12:54 AM 66.0 °F 66.0 °F 100% 30.06 in 3.0 mi Calm Calm - N/A   Overcast
1:09 AM 66.2 °F 64.4 °F 94% 30.14 in 4.0 mi Calm Calm - N/A   Overcast
1:22 AM 66.2 °F 66.2 °F 100% 30.13 in 3.0 mi Calm Calm - N/A   Mostly Cloudy
1:54 AM 66.0 °F 64.9 °F 96% 30.05 in 5.0 mi Calm Calm - N/A   Overcast
2:54 AM 66.0 °F 66.0 °F 100% 30.04 in 5.0 mi Calm Calm - 0.00 in Rain Light Rain
3:49 AM 66.2 °F 64.4 °F 94% 30.11 in 6.0 mi Calm Calm - 0.01 in Rain Light Rain
3:54 AM 66.0 °F 64.9 °F 96% 30.03 in 7.0 mi Calm Calm - 0.01 in Rain Light Rain
4:23 AM 66.2 °F 64.4 °F 94% 30.11 in 4.0 mi WNW 3.5 mph - 0.00 in   Overcast
4:50 AM 66.2 °F 66.2 °F 100% 30.10 in 2.5 mi NNW 4.6 mph - 0.00 in   Overcast
4:54 AM 64.9 °F 64.9 °F 100% 30.04 in 1.2 mi NNW 5.8 mph - 0.00 in   Overcast
5:02 AM 66.2 °F 64.4 °F 94% 30.10 in 2.0 mi NNW 4.6 mph - N/A   Overcast
5:10 AM 66.2 °F 64.4 °F 94% 30.11 in 3.0 mi NW 3.5 mph - N/A   Overcast
5:22 AM 66.2 °F 66.2 °F 100% 30.11 in 2.5 mi NNW 3.5 mph - 0.00 in Rain Light Rain
5:52 AM 66.2 °F 64.4 °F 94% 30.10 in 3.0 mi NNW 3.5 mph - 0.00 in   Overcast
5:54 AM 66.0 °F 64.9 °F 96% 30.04 in 3.0 mi NNW 3.5 mph - 0.00 in   Overcast
6:08 AM 66.2 °F 64.4 °F 94% 30.10 in 5.0 mi NW 4.6 mph - N/A   Overcast
6:25 AM 66.2 °F 64.4 °F 94% 30.10 in 6.0 mi NNW 5.8 mph - 0.00 in Rain Light Rain
6:54 AM 64.9 °F 64.0 °F 97% 30.04 in 6.0 mi NNW 4.6 mph - 0.00 in Rain Light Rain
7:26 AM 64.4 °F 64.4 °F 100% 30.11 in 4.0 mi NNW 5.8 mph - 0.01 in Rain Light Rain
7:52 AM 64.4 °F 64.4 °F 100% 30.12 in 3.0 mi NNW 8.1 mph - 0.01 in Rain Light Rain
7:54 AM 64.9 °F 64.9 °F 100% 30.06 in 3.0 mi NNW 8.1 mph - 0.01 in Rain Light Rain
8:02 AM 64.4 °F 64.4 °F 100% 30.12 in 3.0 mi NNW 9.2 mph - 0.01 in Rain Light Rain
8:17 AM 66.2 °F 64.4 °F 94% 30.12 in 4.0 mi NNW 8.1 mph - 0.01 in Rain Light Rain
8:47 AM 66.2 °F 66.2 °F 100% 30.13 in 4.0 mi North 5.8 mph - 0.02 in   Mostly Cloudy
8:54 AM 66.0 °F 66.0 °F 100% 30.06 in 4.0 mi North 4.6 mph - 0.02 in   Mostly Cloudy
9:03 AM 66.2 °F 64.4 °F 94% 30.12 in 2.0 mi North 5.8 mph - N/A   Mostly Cloudy
9:54 AM 66.9 °F 64.9 °F 93% 30.07 in 2.0 mi North 5.8 mph - 0.00 in Rain Light Rain
9:57 AM 66.2 °F 64.4 °F 94% 30.13 in 9.0 mi NNW 4.6 mph - 0.00 in Rain Light Rain
10:01 AM 66.2 °F 64.4 °F 94% 30.13 in 2.0 mi NNW 4.6 mph - 0.00 in Rain Light Rain
10:35 AM 68.0 °F 64.4 °F 88% 30.13 in 2.0 mi NNW 6.9 mph - 0.00 in   Overcast
10:42 AM 68.0 °F 64.4 °F 88% 30.13 in 3.0 mi NNW 5.8 mph - 0.00 in   Mostly Cloudy
10:54 AM 68.0 °F 64.9 °F 90% 30.06 in 3.0 mi NW 4.6 mph - 0.00 in   Scattered Clouds
11:54 AM 70.0 °F 64.9 °F 84% 30.05 in 10.0 mi Calm Calm - N/A   Partly Cloudy
12:54 PM 73.0 °F 64.0 °F 73% 30.02 in 10.0 mi SSE 8.1 mph - N/A   Scattered Clouds
1:01 PM 73.4 °F 64.4 °F 73% 30.09 in 10.0 mi Variable 4.6 mph - N/A   Mostly Cloudy
1:32 PM 73.4 °F 64.4 °F 73% 30.07 in 10.0 mi Variable 3.5 mph - N/A   Scattered Clouds
1:54 PM 75.0 °F 63.0 °F 66% 29.99 in 10.0 mi ESE 5.8 mph - N/A   Partly Cloudy
2:54 PM 75.9 °F 62.1 °F 62% 29.98 in 10.0 mi Variable 3.5 mph - N/A   Clear
3:54 PM 73.4 °F 64.4 °F 73% 30.03 in 9.0 mi ESE 6.9 mph - N/A Rain Light Rain
4:54 PM 75.0 °F 64.9 °F 71% 29.95 in 10.0 mi SE 3.5 mph - 0.00 in   Partly Cloudy
5:10 PM 73.4 °F 66.2 °F 78% 30.02 in 10.0 mi South 18.4 mph 27.6 mph N/A Thunderstorm Thunderstorm
5:29 PM 66.2 °F 64.4 °F 94% 30.02 in 2.5 mi South 6.9 mph - 0.07 in Rain , Thunderstorm Heavy Thunderstorms and Rain
5:38 PM 66.2 °F 64.4 °F 94% 30.02 in 4.0 mi South 3.5 mph - 0.09 in Rain , Thunderstorm Thunderstorms and Rain
5:54 PM 66.9 °F 66.0 °F 97% 29.95 in 10.0 mi ESE 3.5 mph - 0.10 in Rain , Thunderstorm Light Thunderstorms and Rain
6:03 PM 66.2 °F 64.4 °F 94% 30.01 in 10.0 mi SE 3.5 mph - 0.00 in Thunderstorm Thunderstorm
6:05 PM 66.2 °F 66.2 °F 100% 30.01 in 10.0 mi SE 3.5 mph - 0.00 in   Mostly Cloudy
6:54 PM 68.0 °F 66.0 °F 93% 29.93 in 10.0 mi East 3.5 mph - 0.00 in   Partly Cloudy
7:54 PM 66.9 °F 64.9 °F 93% 29.94 in 10.0 mi Calm Calm - N/A   Scattered Clouds
8:54 PM 66.9 °F 64.9 °F 93% 29.93 in 10.0 mi Calm Calm - N/A   Mostly Cloudy
9:54 PM 66.0 °F 64.9 °F 96% 29.93 in 10.0 mi Calm Calm - N/A   Scattered Clouds
10:54 PM 66.0 °F 64.9 °F 96% 29.94 in 10.0 mi Calm Calm - N/A   Partly Cloudy
11:54 PM 66.0 °F 66.0 °F 100% 29.93 in 10.0 mi South 4.6 mph - N/A   Overcast